Stations météo

réclame
Mon MeteoGroup
Terschelling/Hoorn, Pays-Bas (6251): Température de l'air & dewpoint: 19.09.2018 09:00:00 - 25.09.2018 09:00:00 (CEST)Terschelling/Hoorn, Pays-Bas (6251): Température de l'air 5cm: 19.09.2018 09:00:00 - 25.09.2018 09:00:00 (CEST)Terschelling/Hoorn, Pays-Bas (6251): Vitesse du vent & gusts: 19.09.2018 09:00:00 - 25.09.2018 09:00:00 (CEST)Terschelling/Hoorn, Pays-Bas (6251): Direction du vent: 19.09.2018 09:00:00 - 25.09.2018 09:00:00 (CEST)Terschelling/Hoorn, Pays-Bas (6251): reduced air pressure: 19.09.2018 09:00:00 - 25.09.2018 09:00:00 (CEST)Terschelling/Hoorn, Pays-Bas (6251): visibility: 19.09.2018 09:00:00 - 25.09.2018 09:00:00 (CEST)Terschelling/Hoorn, Pays-Bas (6251): Quantités de précipitations: 19.09.2018 09:00:00 - 25.09.2018 09:00:00 (CEST)
Date & Time tt [°C] td [°C] tt 5cm [°C] ff [km/h] ff [knt] fx [km/h] fx [knt] dd ppp [hPa] vv [km] rr [mm]
25.09.2018 09:00:00 12,4 7,8 11,2 7 4 11 6 NW 1037,6 39 0,0
25.09.2018 08:00:00 9,2 6,3 5,6 7 4 14 8 NNW 1037,2 24 0,0
25.09.2018 07:00:00 10,0 6,9 8,0 11 6 18 10 N 1036,9 31 0,2
25.09.2018 06:00:00 10,5 7,6 9,6 14 8 29 16 WNW 1037,1 20 0,1
25.09.2018 05:00:00 9,9 7,8 8,9 7 4 18 10 W 1036,9 16 0,0
25.09.2018 04:00:00 10,1 7,4 9,6 11 6 25 14 WNW 1036,8 23 0,0
25.09.2018 03:00:00 9,1 5,2 6,8 7 4 25 14 NW 1036,6 33 0,0
25.09.2018 02:00:00 9,6 5,5 7,4 11 6 22 12 NNW 1036,6 30 0,0
25.09.2018 01:00:00 11,1 6,1 9,7 14 8 36 19 NNW 1036,4 34 0,1
25.09.2018 00:00:00 11,7 6,0 9,7 18 10 29 16 NNW 1036,1 32 0,0
24.09.2018 23:00:00 11,4 5,9 10,2 22 12 36 19 NNW 1035,8 28 0,0
24.09.2018 22:00:00 11,5 6,0 10,6 22 12 36 19 NNW 1035,5 28 0,0
24.09.2018 21:00:00 11,5 6,4 10,2 22 12 36 19 NNW 1034,8 29 0,0
24.09.2018 20:00:00 11,1 6,0 10,0 25 14 36 19 NNW 1034,4 29 0,0
24.09.2018 19:00:00 10,7 7,4 10,0 18 10 43 23 NNW 1034,1 14 0,0
24.09.2018 18:00:00 11,6 7,4 10,7 18 10 54 29 NNW 1033,9 23 0,0
24.09.2018 17:00:00 13,2 7,6 13,1 29 16 47 25 NW 1033,6 23 0,0
24.09.2018 16:00:00 10,7 7,9 10,0 25 14 65 35 W 1033,7 16 1,4
24.09.2018 15:00:00 12,2 8,7 11,4 25 14 61 33 WNW 1033,4 18 0,1
24.09.2018 14:00:00 12,4 8,0 10,2 29 16 58 31 NW 1032,9 10 1,1
24.09.2018 13:00:00 11,3 7,3 11,1 32 18 54 29 NW 1032,5 10 0,3
24.09.2018 12:00:00 13,6 7,2 14,1 36 19 58 31 NW 1031,9 25 0,0
24.09.2018 11:00:00 13,1 6,4 13,1 32 18 54 29 NW 1031,2 23 0,0
24.09.2018 10:00:00 12,1 6,9 11,8 36 19 54 29 NW 1030,7 23 0,0
24.09.2018 09:00:00 11,6 5,9 10,8 32 18 54 29 NNW 1029,6 23 0,2
24.09.2018 08:00:00 10,2 6,7 9,7 40 21 58 31 WNW 1028,6 11 0,1
24.09.2018 07:00:00 11,7 6,6 10,7 22 12 47 25 NW 1028,1 20 0,0
24.09.2018 06:00:00 11,8 4,7 10,6 32 18 50 27 NW 1027,6 27 0,0
24.09.2018 05:00:00 11,8 4,7 10,7 32 18 50 27 NW 1027,0 25 0,0
24.09.2018 04:00:00 11,9 5,2 10,9 32 18 54 29 NW 1026,3 28 0,0
24.09.2018 03:00:00 11,7 4,2 10,9 32 18 50 27 NW 1025,5 22 0,0
24.09.2018 02:00:00 11,8 4,3 10,7 36 19 58 31 NW 1024,4 27 0,0
24.09.2018 01:00:00 11,9 4,3 10,3 32 18 61 33 NNW 1023,5 23 0,0
24.09.2018 00:00:00 11,5 4,9 10,1 36 19 58 31 NNW 1022,6 24 0,2
23.09.2018 23:00:00 11,7 5,7 10,5 36 19 61 33 NNW 1021,6 18 0,1
23.09.2018 22:00:00 11,8 5,2 10,4 32 18 58 31 NNW 1020,2 22 0,1
23.09.2018 21:00:00 12,3 4,0 10,8 32 18 54 29 NNW 1018,9 26 0,0
23.09.2018 20:00:00 12,1 5,9 11,1 29 16 47 25 NNW 1017,5 22 0,0
23.09.2018 19:00:00 12,4 5,5 11,4 29 16 47 25 NNW 1015,9 31 0,0
23.09.2018 18:00:00 12,2 6,7 11,4 29 16 43 23 N 1014,6 24 0,0
23.09.2018 17:00:00 11,8 7,0 11,1 25 14 43 23 N 1013,9 28 3,3
23.09.2018 16:00:00 9,7 7,2 9,5 25 14 36 19 NNW 1013,1 7 3,3
23.09.2018 15:00:00 11,4 8,6 11,1 11 6 36 19 N 1012,5 18 0,8
23.09.2018 14:00:00 13,0 7,2 12,4 14 8 18 10 NNW 1012,4 38 0,0
23.09.2018 13:00:00 12,6 7,7 12,4 7 4 14 8 NNW 1012,6 39 0,0
23.09.2018 12:00:00 12,3 9,0 12,0 0 0 11 6 N 1012,5 36 0,1
23.09.2018 11:00:00 12,2 10,1 12,2 0 0 7 4 N 1012,8 21 0,1
23.09.2018 10:00:00 11,9 10,3 11,7 4 2 11 6 WSW 1012,9 32 0,0
23.09.2018 09:00:00 11,3 9,8 11,0 11 6 14 8 SW 1012,9 26 0,0
23.09.2018 08:00:00 11,0 9,6 10,6 11 6 14 8 SW 1013,1 15 0,1
23.09.2018 07:00:00 10,9 9,7 10,6 7 4 11 6 W 1013,3 24 0,0
23.09.2018 06:00:00 11,3 9,9 10,6 7 4 11 6 WSW 1013,1 21 0,0
23.09.2018 05:00:00 10,7 9,6 10,3 7 4 14 8 WSW 1013,7 30 0,0
23.09.2018 04:00:00 11,4 10,0 10,7 11 6 14 8 SW 1014,2 38 0,0
23.09.2018 03:00:00 11,3 9,6 9,3 11 6 18 10 WSW 1014,8 30 0,0
23.09.2018 02:00:00 10,2 8,3 9,2 4 2 7 4 W 1015,2 25 0,0
23.09.2018 01:00:00 9,9 8,0 8,9 7 4 11 6 W 1015,3 25 0,0
23.09.2018 00:00:00 9,6 7,4 8,9 7 4 14 8 W 1015,6 26 0,0
22.09.2018 23:00:00 9,3 6,3 8,1 11 6 18 10 W 1015,8 22 0,0
22.09.2018 22:00:00 10,9 7,0 10,1 11 6 25 14 W 1015,9 20 0,0
22.09.2018 21:00:00 12,0 6,2 11,1 14 8 29 16 W 1016,0 25 0,0
22.09.2018 20:00:00 12,2 5,9 11,2 22 12 32 18 W 1015,7 24 0,0
22.09.2018 19:00:00 12,6 6,1 11,8 22 12 40 21 W 1015,6 25 0,0
22.09.2018 18:00:00 13,2 5,9 12,8 25 14 40 21 W 1015,9 27 0,0
22.09.2018 17:00:00 13,4 7,7 13,2 25 14 47 25 W 1016,1 25 0,0
22.09.2018 16:00:00 13,8 6,4 13,7 36 19 47 25 W 1016,2 30 0,1
22.09.2018 15:00:00 13,4 8,7 13,1 29 16 47 25 W 1016,1 25 0,1
22.09.2018 14:00:00 13,3 9,0 13,1 36 19 50 27 W 1016,0 21 0,0
22.09.2018 13:00:00 13,7 8,4 12,6 32 18 54 29 W 1016,0 22 0,2
22.09.2018 12:00:00 14,3 7,8 14,0 32 18 50 27 W 1015,9 24 0,0
22.09.2018 11:00:00 14,0 7,6 13,3 36 19 50 27 W 1015,8 25 0,0
22.09.2018 10:00:00 12,7 8,8 12,1 32 18 54 29 W 1015,4 24 0,1
22.09.2018 09:00:00 13,3 8,0 12,1 32 18 50 27 W 1015,1 25 0,0
22.09.2018 08:00:00 11,7 9,2 11,2 29 16 47 25 W 1014,9 12 0,1
22.09.2018 07:00:00 13,0 7,9 11,9 29 16 43 23 W 1014,5 24 0,0
22.09.2018 06:00:00 12,6 7,6 11,3 29 16 47 25 W 1014,1 29 0,0
22.09.2018 05:00:00 12,9 8,2 11,4 29 16 47 25 W 1013,9 33 0,0
22.09.2018 04:00:00 12,8 8,4 12,1 32 18 47 25 W 1013,6 31 0,0
22.09.2018 03:00:00 12,8 8,9 12,0 29 16 43 23 WNW 1012,7 26 0,0
22.09.2018 02:00:00 12,1 9,2 11,3 29 16 50 27 W 1012,0 27 0,6
22.09.2018 01:00:00 12,3 9,1 11,5 29 16 43 23 WNW 1010,9 12 0,4
22.09.2018 00:00:00 10,7 9,4 10,2 22 12 47 25 W 1009,6 10 2,2
21.09.2018 23:00:00 11,7 9,6 11,2 32 18 47 25 WNW 1008,0 17 0,6
21.09.2018 22:00:00 11,8 8,8 11,0 29 16 58 31 W 1007,3 19 0,3
21.09.2018 21:00:00 12,5 8,3 11,7 36 19 54 29 W 1006,7 19 0,0
21.09.2018 20:00:00 12,5 8,0 11,7 36 19 61 33 W 1006,3 23 0,0
21.09.2018 19:00:00 12,3 8,4 11,5 40 21 72 39 W 1005,7 24 0,3
21.09.2018 18:00:00 10,1 7,3 8,9 50 27 94 51 W 1005,9 6 0,9
21.09.2018 17:00:00 13,3 8,2 12,6 43 23 72 39 WSW 1005,1 23 1,2
21.09.2018 16:00:00 13,6 6,9 13,3 50 27 72 39 WSW 1004,9 28 0,0
21.09.2018 15:00:00 15,2 7,5 14,7 54 29 76 41 WSW 1004,2 20 0,0
21.09.2018 14:00:00 13,1 9,8 13,1 50 27 76 41 WSW 1003,7 14 0,0
21.09.2018 13:00:00 13,2 9,0 12,6 43 23 72 39 WSW 1002,3 25 0,1
21.09.2018 12:00:00 14,5 8,2 15,1 58 31 76 41 W 1001,4 19 0,0
21.09.2018 11:00:00 14,0 7,7 13,4 54 29 76 41 W 1000,3 20 0,0
21.09.2018 10:00:00 14,5 9,9 13,4 50 27 76 41 W 998,8 18 0,0
21.09.2018 09:00:00 15,0 11,1 14,2 58 31 90 49 WSW 997,4 18 1,9
21.09.2018 08:00:00 16,6 15,6 16,4 61 33 79 43 SSW 994,8 4,0 0,3
21.09.2018 07:00:00 18,3 15,4 17,7 47 25 61 33 S 995,4 18 0,0
21.09.2018 06:00:00 18,2 15,5 17,8 40 21 58 31 S 996,7 22 0,0
21.09.2018 05:00:00 18,5 15,4 17,9 40 21 50 27 S 997,7 22 0,0
21.09.2018 04:00:00 18,3 15,6 17,9 40 21 50 27 S 1000,1 23 0,0
21.09.2018 03:00:00 18,5 15,6 17,9 36 19 47 25 S 1001,2 24 0,0
21.09.2018 02:00:00 18,5 15,8 18,0 32 18 43 23 SSW 1002,9 25 0,0
21.09.2018 01:00:00 18,5 15,9 17,8 36 19 43 23 S 1004,0 23 0,0
21.09.2018 00:00:00 17,5 16,4 17,1 25 14 32 18 S 1005,0 13 0,0
20.09.2018 23:00:00 17,7 16,1 17,3 29 16 40 21 S 1006,5 15 0,0
20.09.2018 22:00:00 17,8 16,1 17,3 29 16 40 21 SSW 1007,6 14 0,0
20.09.2018 21:00:00 17,9 16,2 17,5 29 16 47 25 SSW 1008,4 13 0,0
20.09.2018 20:00:00 18,0 16,4 17,5 32 18 43 23 SSW 1009,3 13 0,0
20.09.2018 19:00:00 18,1 16,2 17,7 32 18 47 25 SW 1009,9 13 0,0
20.09.2018 18:00:00 18,6 16,2 18,5 32 18 54 29 SW 1010,8 13 0,0
20.09.2018 17:00:00 18,9 16,3 18,6 40 21 54 29 SSW 1011,3 13 0,0
20.09.2018 16:00:00 18,7 16,6 18,5 40 21 54 29 SSW 1011,9 12 0,0
20.09.2018 15:00:00 19,1 16,6 18,8 43 23 61 33 SW 1012,3 13 0,0
20.09.2018 14:00:00 19,0 16,7 19,5 43 23 54 29 SW 1012,4 14 0,0
20.09.2018 13:00:00 18,5 16,7 18,7 40 21 54 29 SW 1012,5 12 0,0
20.09.2018 12:00:00 18,5 16,9 18,5 40 21 50 27 SSW 1012,6 13 0,0
20.09.2018 11:00:00 18,3 17,1 17,8 32 18 40 21 SSW 1012,9 11 0,0
20.09.2018 10:00:00 17,7 16,7 17,2 29 16 40 21 SSW 1012,9 12 0,0
20.09.2018 09:00:00 15,3 14,9 15,1 4 2 7 4 SSE 1013,1 11 0,0
20.09.2018 08:00:00 15,0 14,9 15,0 7 4 14 8 WSW 1013,4 7 0,1
20.09.2018 07:00:00 15,5 14,9 15,3 7 4 22 12 W 1013,6 7 0,3
20.09.2018 06:00:00 16,0 15,7 15,9 18 10 43 23 WSW 1013,5 4,2 0,5
20.09.2018 05:00:00 17,7 16,2 17,3 32 18 43 23 SW 1013,3 12 0,0
20.09.2018 04:00:00 17,7 16,2 17,3 32 18 40 21 SW 1013,5 11 0,0
20.09.2018 03:00:00 17,4 16,0 16,7 32 18 43 23 SW 1013,1 11 0,0
20.09.2018 02:00:00 17,6 16,1 16,9 32 18 47 25 SW 1013,3 11 0,0
20.09.2018 01:00:00 17,7 16,0 17,1 32 18 47 25 SW 1013,4 11 0,0
20.09.2018 00:00:00 17,9 15,9 17,3 36 19 47 25 SW 1013,5 12 0,0
19.09.2018 23:00:00 18,2 16,2 17,6 40 21 - - SW 1013,5 12 0,0
19.09.2018 22:00:00 18,5 16,1 17,9 47 25 61 33 SW 1013,2 11 0,0
19.09.2018 21:00:00 18,6 16,3 18,0 47 25 68 37 SW 1012,9 11 0,0
19.09.2018 20:00:00 18,7 16,1 18,1 50 27 72 39 SW 1012,9 12 0,0
19.09.2018 19:00:00 19,1 16,1 18,5 50 27 68 37 SSW 1012,4 13 0,0
19.09.2018 18:00:00 19,4 15,8 19,1 54 29 68 37 SSW 1012,4 14 0,0
19.09.2018 17:00:00 20,0 15,9 20,2 50 27 65 35 SSW 1012,6 15 0,0
19.09.2018 16:00:00 19,8 16,6 20,0 47 25 58 31 SSW 1012,7 12 0,0
19.09.2018 15:00:00 20,1 16,8 21,4 40 21 50 27 SSW 1012,8 15 0,0
19.09.2018 14:00:00 20,2 16,6 21,4 40 21 50 27 SSW 1012,8 16 0,0
19.09.2018 13:00:00 20,0 16,7 21,1 29 16 43 23 SSW 1013,0 14 0,0
19.09.2018 12:00:00 19,0 16,6 20,2 29 16 43 23 S 1013,4 15 0,0
19.09.2018 11:00:00 18,4 15,9 19,3 32 18 43 23 S 1013,4 17 0,0
19.09.2018 10:00:00 17,7 15,5 17,8 32 18 43 23 S 1013,5 18 0,0
19.09.2018 09:00:00 17,0 15,4 16,7 29 16 40 21 S 1013,7 18 0,0

tt = Température de l'air
td = dewpoint
tt 5cm = Température de l'air 5cm
ff = Vitesse du vent
fx = gusts
dd = Direction du vent
ppp = reduced air pressure
vv = visibility
rr = Quantités de précipitations

stations d'obs. à proximité